Location: Humble ISD Astronomical Observatory
(29.9680°N, 95.2620°W)
Time: 12:47:30
(UTC-05:00)

Tiangong 2 - Pass Details

Date: 23 March 2019
Orbit: 378 x 390 km, 42.8° (Epoch: 24 April)

Event Time Altitude Azimuth Distance (km) Brightness Sun altitude
Exits shadow 06:28:29 13° 307° (NW) 1,215 3.2 -12.3°
Maximum altitude 06:31:11 77° 33° (NNE) 395 1.1 -11.7°
Drops below altitude 10° 06:34:20 10° 120° (ESE) 1,399 4.7 -11.0°
Sets 06:36:24 0° 122° (ESE) 2,253 5.8 -10.6°
